Time,TemperatureF,DewpointF,PressureIn,WindDirection,WindDirectionDegrees,WindSpeedMPH,WindSpeedGustMPH,Humidity,HourlyPrecipIn,Conditions,Clouds,dailyrainin,SolarRadiationWatts/m^2,SoftwareType,DateUTC
2013-01-23 00:04:00,19.2,7.6,30.46,ESE,115,4.0,5.0,60,0.00,,,0.00,0,Wunderground v.1.15,2013-01-23 06:04:00,
2013-01-23 00:14:00,19.0,7.7,30.46,ESE,113,4.0,5.0,61,0.00,,,0.00,0,Wunderground v.1.15,2013-01-23 06:14:00,
2013-01-23 00:24:00,18.9,7.7,30.45,ESE,103,5.0,7.0,61,0.00,,,0.00,0,Wunderground v.1.15,2013-01-23 06:24:00,
2013-01-23 00:29:00,18.9,7.7,30.45,ESE,113,5.0,5.0,61,0.00,,,0.00,0,Wunderground v.1.15,2013-01-23 06:29:00,
2013-01-23 00:39:00,18.7,7.8,30.44,East,97,4.0,5.0,62,0.00,,,0.00,0,Wunderground v.1.15,2013-01-23 06:39:00,
2013-01-23 00:44:00,18.6,7.7,30.44,ESE,107,4.0,5.0,62,0.00,,,0.00,0,Wunderground v.1.15,2013-01-23 06:44:00,
2013-01-23 00:54:00,18.6,7.7,30.44,East,99,3.0,6.0,62,0.00,,,0.00,0,Wunderground v.1.15,2013-01-23 06:54:00,
2013-01-23 01:04:00,18.6,7.7,30.44,ESE,105,4.0,4.0,62,0.00,,,0.00,0,Wunderground v.1.15,2013-01-23 07:04:00,
2013-01-23 01:14:00,18.6,7.7,30.44,ESE,102,4.0,4.0,62,0.00,,,0.00,0,Wunderground v.1.15,2013-01-23 07:14:00,
2013-01-23 01:24:00,18.4,7.5,30.44,ESE,112,3.0,4.0,62,0.00,,,0.00,0,Wunderground v.1.15,2013-01-23 07:24:00,
2013-01-23 01:29:00,18.4,7.5,30.44,East,101,3.0,3.0,62,0.00,,,0.00,0,Wunderground v.1.15,2013-01-23 07:29:00,
2013-01-23 01:39:00,18.2,7.7,30.44,East,101,3.0,3.0,63,0.00,,,0.00,0,Wunderground v.1.15,2013-01-23 07:39:00,
2013-01-23 01:44:00,18.2,7.7,30.44,ESE,105,3.0,3.0,63,0.00,,,0.00,0,Wunderground v.1.15,2013-01-23 07:44:00,
2013-01-23 01:49:00,18.2,7.7,30.44,ESE,113,2.0,3.0,63,0.00,,,0.00,0,Wunderground v.1.15,2013-01-23 07:49:00,
2013-01-23 01:59:00,18.0,7.5,30.44,ESE,118,3.0,3.0,63,0.00,,,0.00,0,Wunderground v.1.15,2013-01-23 07:59:00,
2013-01-23 02:09:00,18.0,7.9,30.44,ESE,104,2.0,2.0,64,0.00,,,0.00,0,Wunderground v.1.15,2013-01-23 08:09:00,
2013-01-23 02:14:00,17.9,7.8,30.44,ESE,111,3.0,3.0,64,0.00,,,0.00,0,Wunderground v.1.15,2013-01-23 08:14:00,
2013-01-23 02:24:00,17.8,7.7,30.44,East,95,2.0,3.0,64,0.00,,,0.00,0,Wunderground v.1.15,2013-01-23 08:24:00,
2013-01-23 02:29:00,17.6,7.8,30.44,ESE,107,3.0,5.0,65,0.00,,,0.00,0,Wunderground v.1.15,2013-01-23 08:29:00,
2013-01-23 02:39:00,17.5,7.7,30.43,ESE,118,3.0,5.0,65,0.00,,,0.00,0,Wunderground v.1.15,2013-01-23 08:39:00,
2013-01-23 02:50:00,17.5,7.7,30.43,ESE,104,3.0,3.0,65,0.00,,,0.00,0,Wunderground v.1.15,2013-01-23 08:50:00,
2013-01-23 03:00:00,17.4,8.0,30.43,ESE,107,3.0,3.0,66,0.00,,,0.00,0,Wunderground v.1.15,2013-01-23 09:00:00,
2013-01-23 03:10:00,17.3,7.9,30.43,ESE,118,2.0,3.0,66,0.00,,,0.00,0,Wunderground v.1.15,2013-01-23 09:10:00,
2013-01-23 03:15:00,17.2,7.8,30.43,ESE,107,2.0,3.0,66,0.00,,,0.00,0,Wunderground v.1.15,2013-01-23 09:15:00,
2013-01-23 03:25:00,17.0,7.9,30.42,ESE,105,2.0,3.0,67,0.00,,,0.00,0,Wunderground v.1.15,2013-01-23 09:25:00,
2013-01-23 03:35:00,17.0,7.9,30.41,ESE,109,2.0,3.0,67,0.00,,,0.00,0,Wunderground v.1.15,2013-01-23 09:35:00,
2013-01-23 03:45:00,16.8,8.4,30.41,ESE,112,1.0,1.0,69,0.00,,,0.00,0,Wunderground v.1.15,2013-01-23 09:45:00,
2013-01-23 03:55:00,16.7,8.3,30.41,ESE,102,1.0,2.0,69,0.00,,,0.00,0,Wunderground v.1.15,2013-01-23 09:55:00,
2013-01-23 04:05:00,16.6,8.2,30.41,SE,128,1.0,1.0,69,0.00,,,0.00,0,Wunderground v.1.15,2013-01-23 10:05:00,
2013-01-23 04:10:00,16.6,8.2,30.41,ESE,113,2.0,3.0,69,0.00,,,0.00,0,Wunderground v.1.15,2013-01-23 10:10:00,
2013-01-23 04:20:00,16.5,8.1,30.41,East,101,2.0,2.0,69,0.00,,,0.00,0,Wunderground v.1.15,2013-01-23 10:20:00,
2013-01-23 04:30:00,16.5,8.1,30.41,ESE,103,2.0,2.0,69,0.00,,,0.00,0,Wunderground v.1.15,2013-01-23 10:30:00,
2013-01-23 04:40:00,16.4,8.0,30.40,ESE,121,1.0,2.0,69,0.00,,,0.00,0,Wunderground v.1.15,2013-01-23 10:40:00,
2013-01-23 04:45:00,16.4,8.3,30.40,ESE,115,1.0,2.0,70,0.00,,,0.00,0,Wunderground v.1.15,2013-01-23 10:45:00,
2013-01-23 04:55:00,16.3,8.2,30.40,ESE,123,2.0,3.0,70,0.00,,,0.00,0,Wunderground v.1.15,2013-01-23 10:55:00,
2013-01-23 05:05:00,16.2,8.1,30.40,SE,137,2.0,3.0,70,0.00,,,0.00,0,Wunderground v.1.15,2013-01-23 11:05:00,
2013-01-23 05:15:00,16.1,8.0,30.40,SE,137,1.0,1.0,70,0.00,,,0.00,0,Wunderground v.1.15,2013-01-23 11:15:00,
2013-01-23 05:25:00,16.0,7.9,30.41,SE,137,0.0,2.0,70,0.00,,,0.00,0,Wunderground v.1.15,2013-01-23 11:25:00,
2013-01-23 05:39:00,15.8,8.1,30.41,SE,137,0.0,0.0,71,0.00,,,0.00,0,Wunderground v.1.15,2013-01-23 11:39:00,
2013-01-23 05:45:00,15.7,8.3,30.41,SE,137,0.0,0.0,72,0.00,,,0.00,0,Wunderground v.1.15,2013-01-23 11:45:00,
2013-01-23 05:54:00,15.6,7.9,30.40,SE,137,1.0,2.0,71,0.00,,,0.00,0,Wunderground v.1.15,2013-01-23 11:54:00,
2013-01-23 06:04:00,15.5,8.1,30.40,SE,136,2.0,2.0,72,0.00,,,0.00,0,Wunderground v.1.15,2013-01-23 12:04:00,
2013-01-23 06:10:00,15.5,8.4,30.40,SE,132,2.0,3.0,73,0.00,,,0.00,0,Wunderground v.1.15,2013-01-23 12:10:00,
2013-01-23 06:19:00,15.6,8.5,30.40,SE,134,2.0,2.0,73,0.00,,,0.00,0,Wunderground v.1.15,2013-01-23 12:19:00,
2013-01-23 06:24:00,15.6,8.5,30.40,SE,134,2.0,2.0,73,0.00,,,0.00,0,Wunderground v.1.15,2013-01-23 12:24:00,
2013-01-23 06:34:00,15.6,8.5,30.40,SE,134,2.0,3.0,73,0.00,,,0.00,0,Wunderground v.1.15,2013-01-23 12:34:00,
2013-01-23 06:44:00,15.6,8.5,30.40,SE,134,1.0,2.0,73,0.00,,,0.00,0,Wunderground v.1.15,2013-01-23 12:44:00,
2013-01-23 06:54:00,15.6,8.5,30.40,SE,134,1.0,2.0,73,0.00,,,0.00,0,Wunderground v.1.15,2013-01-23 12:54:00,
2013-01-23 07:04:00,15.5,8.4,30.40,SE,142,1.0,3.0,73,0.00,,,0.00,0,Wunderground v.1.15,2013-01-23 13:04:00,
2013-01-23 07:09:00,15.4,8.6,30.39,SE,142,1.0,3.0,74,0.00,,,0.00,0,Wunderground v.1.15,2013-01-23 13:09:00,
2013-01-23 07:19:00,15.4,8.6,30.40,SE,143,1.0,2.0,74,0.00,,,0.00,0,Wunderground v.1.15,2013-01-23 13:19:00,
2013-01-23 07:24:00,15.4,8.6,30.40,SE,143,1.0,2.0,74,0.00,,,0.00,0,Wunderground v.1.15,2013-01-23 13:24:00,
2013-01-23 07:34:00,15.4,8.6,30.40,SE,145,2.0,3.0,74,0.00,,,0.00,9,Wunderground v.1.15,2013-01-23 13:34:00,
2013-01-23 07:44:00,15.4,8.9,30.40,SSE,148,1.0,1.0,75,0.00,,,0.00,18,Wunderground v.1.15,2013-01-23 13:44:00,
2013-01-23 07:54:00,15.5,9.0,30.40,SSE,148,0.0,2.0,75,0.00,,,0.00,26,Wunderground v.1.15,2013-01-23 13:54:00,
2013-01-23 07:59:00,15.6,9.4,30.40,SSE,148,1.0,1.0,76,0.00,,,0.00,30,Wunderground v.1.15,2013-01-23 13:59:00,
2013-01-23 08:09:00,16.7,10.4,30.40,SE,146,1.0,1.0,76,0.00,,,0.00,62,Wunderground v.1.15,2013-01-23 14:09:00,
2013-01-23 08:14:00,17.5,10.9,30.39,SE,146,1.0,1.0,75,0.00,,,0.00,21,Wunderground v.1.15,2013-01-23 14:14:00,
2013-01-23 08:19:00,18.0,11.4,30.39,SSE,157,1.0,1.0,75,0.00,,,0.00,90,Wunderground v.1.15,2013-01-23 14:19:00,
2013-01-23 08:29:00,19.0,12.1,30.39,SSW,192,2.0,5.0,74,0.00,,,0.00,127,Wunderground v.1.15,2013-01-23 14:29:00,
2013-01-23 08:39:00,20.2,13.2,30.39,SSW,202,3.0,3.0,74,0.00,,,0.00,185,Wunderground v.1.15,2013-01-23 14:39:00,
2013-01-23 08:49:00,22.0,15.0,30.39,SSW,209,4.0,4.0,74,0.00,,,0.00,197,Wunderground v.1.15,2013-01-23 14:49:00,
2013-01-23 08:54:00,23.2,16.1,30.39,SSW,209,3.0,4.0,74,0.00,,,0.00,220,Wunderground v.1.15,2013-01-23 14:54:00,
2013-01-23 09:04:00,24.9,16.8,30.39,SSW,202,4.0,5.0,71,0.00,,,0.00,253,Wunderground v.1.15,2013-01-23 15:04:00,
2013-01-23 09:14:00,26.1,18.0,30.39,SSW,212,5.0,7.0,71,0.00,,,0.00,279,Wunderground v.1.15,2013-01-23 15:14:00,
2013-01-23 09:24:00,27.8,19.3,30.39,SW,217,4.0,5.0,70,0.00,,,0.00,308,Wunderground v.1.15,2013-01-23 15:24:00,
2013-01-23 09:34:00,29.2,19.9,30.39,SW,217,5.0,5.0,68,0.00,,,0.00,332,Wunderground v.1.15,2013-01-23 15:34:00,
2013-01-23 09:44:00,30.3,20.6,30.39,SW,216,3.0,4.0,67,0.00,,,0.00,359,Wunderground v.1.15,2013-01-23 15:44:00,
2013-01-23 09:49:00,31.1,21.1,30.39,SW,217,3.0,3.0,66,0.00,,,0.00,373,Wunderground v.1.15,2013-01-23 15:49:00,
2013-01-23 09:59:00,32.6,22.1,30.39,SW,232,3.0,5.0,65,0.00,,,0.00,396,Wunderground v.1.15,2013-01-23 15:59:00,
2013-01-23 10:09:00,34.0,22.7,30.39,SW,229,4.0,4.0,63,0.00,,,0.00,418,Wunderground v.1.15,2013-01-23 16:09:00,
2013-01-23 10:19:00,34.8,23.1,30.39,SW,224,3.0,3.0,62,0.00,,,0.00,439,Wunderground v.1.15,2013-01-23 16:19:00,
2013-01-23 10:29:00,35.9,23.7,30.40,West,260,3.0,4.0,61,0.00,,,0.00,461,Wunderground v.1.15,2013-01-23 16:29:00,
2013-01-23 10:39:00,36.9,24.3,30.40,WSW,243,4.0,4.0,60,0.00,,,0.00,483,Wunderground v.1.15,2013-01-23 16:39:00,
2013-01-23 10:50:00,37.3,24.7,30.39,West,272,3.0,4.0,60,0.00,,,0.00,482,Wunderground v.1.15,2013-01-23 16:50:00,
2013-01-23 10:55:00,38.0,24.9,30.39,WSW,253,4.0,4.0,59,0.00,,,0.00,490,Wunderground v.1.15,2013-01-23 16:55:00,
2013-01-23 11:00:00,38.7,25.6,30.38,WSW,252,5.0,7.0,59,0.00,,,0.00,519,Wunderground v.1.15,2013-01-23 17:00:00,
2013-01-23 11:10:00,39.8,25.8,30.38,West,281,4.0,5.0,57,0.00,,,0.00,550,Wunderground v.1.15,2013-01-23 17:10:00,
2013-01-23 11:20:00,40.6,25.7,30.38,WNW,290,5.0,5.0,55,0.00,,,0.00,494,Wunderground v.1.15,2013-01-23 17:20:00,
2013-01-23 11:30:00,41.2,25.8,30.38,WSW,250,5.0,5.0,54,0.00,,,0.00,552,Wunderground v.1.15,2013-01-23 17:30:00,
2013-01-23 11:35:00,41.8,25.9,30.38,West,281,5.0,6.0,53,0.00,,,0.00,548,Wunderground v.1.15,2013-01-23 17:35:00,
2013-01-23 11:45:00,42.4,26.0,30.37,WSW,248,4.0,5.0,52,0.00,,,0.00,550,Wunderground v.1.15,2013-01-23 17:45:00,
2013-01-23 11:50:00,42.4,26.0,30.37,SW,229,4.0,7.0,52,0.00,,,0.00,566,Wunderground v.1.15,2013-01-23 17:50:00,
2013-01-23 12:00:00,42.7,25.8,30.35,SW,236,5.0,5.0,51,0.00,,,0.00,571,Wunderground v.1.15,2013-01-23 18:00:00,
2013-01-23 12:10:00,43.0,26.1,30.35,West,260,4.0,4.0,51,0.00,,,0.00,566,Wunderground v.1.15,2013-01-23 18:10:00,
2013-01-23 12:15:00,43.4,25.0,30.35,WNW,290,4.0,5.0,48,0.00,,,0.00,573,Wunderground v.1.15,2013-01-23 18:15:00,
2013-01-23 12:25:00,43.6,24.7,30.34,West,260,5.0,5.0,47,0.00,,,0.00,580,Wunderground v.1.15,2013-01-23 18:25:00,
2013-01-23 12:35:00,44.4,25.4,30.34,West,280,4.0,8.0,47,0.00,,,0.00,570,Wunderground v.1.15,2013-01-23 18:35:00,
2013-01-23 12:40:00,44.1,25.1,30.34,WNW,302,5.0,5.0,47,0.00,,,0.00,571,Wunderground v.1.15,2013-01-23 18:40:00,
2013-01-23 12:50:00,44.3,25.3,30.33,WNW,288,6.0,6.0,47,0.00,,,0.00,570,Wunderground v.1.15,2013-01-23 18:50:00,
2013-01-23 13:00:00,44.4,24.9,30.33,West,266,6.0,6.0,46,0.00,,,0.00,559,Wunderground v.1.15,2013-01-23 19:00:00,
2013-01-23 13:05:00,44.9,25.9,30.33,West,277,5.0,7.0,47,0.00,,,0.00,557,Wunderground v.1.15,2013-01-23 19:05:00,
2013-01-23 13:15:00,45.2,25.6,30.32,West,276,6.0,7.0,46,0.00,,,0.00,548,Wunderground v.1.15,2013-01-23 19:15:00,
2013-01-23 13:25:00,45.4,25.3,30.32,NW,315,6.0,8.0,45,0.00,,,0.00,540,Wunderground v.1.15,2013-01-23 19:25:00,
2013-01-23 13:34:00,45.0,25.4,30.32,WSW,240,5.0,6.0,46,0.00,,,0.00,531,Wunderground v.1.15,2013-01-23 19:34:00,
2013-01-23 13:44:00,45.5,25.4,30.32,NW,306,4.0,4.0,45,0.00,,,0.00,519,Wunderground v.1.15,2013-01-23 19:44:00,
2013-01-23 13:50:00,45.4,25.3,30.32,NW,317,5.0,5.0,45,0.00,,,0.00,506,Wunderground v.1.15,2013-01-23 19:50:00,
2013-01-23 14:00:00,46.0,25.3,30.31,West,272,5.0,5.0,44,0.00,,,0.00,496,Wunderground v.1.15,2013-01-23 20:00:00,
2013-01-23 14:09:00,46.4,25.6,30.32,WNW,297,5.0,5.0,44,0.00,,,0.00,482,Wunderground v.1.15,2013-01-23 20:09:00,
2013-01-23 14:14:00,46.0,24.7,30.31,WNW,299,5.0,5.0,43,0.00,,,0.00,455,Wunderground v.1.15,2013-01-23 20:14:00,
2013-01-23 14:24:00,46.3,25.0,30.31,WNW,288,5.0,5.0,43,0.00,,,0.00,450,Wunderground v.1.15,2013-01-23 20:24:00,
2013-01-23 14:34:00,46.4,25.6,30.31,NW,322,5.0,7.0,44,0.00,,,0.00,432,Wunderground v.1.15,2013-01-23 20:34:00,
2013-01-23 14:44:00,46.0,25.8,30.32,WNW,302,6.0,9.0,45,0.00,,,0.00,408,Wunderground v.1.15,2013-01-23 20:44:00,
2013-01-23 14:54:00,46.1,25.9,30.32,NNW,328,5.0,8.0,45,0.00,,,0.00,388,Wunderground v.1.15,2013-01-23 20:54:00,
2013-01-23 14:59:00,45.9,25.7,30.32,NW,319,6.0,6.0,45,0.00,,,0.00,378,Wunderground v.1.15,2013-01-23 20:59:00,
2013-01-23 15:09:00,45.9,25.7,30.32,West,281,6.0,6.0,45,0.00,,,0.00,345,Wunderground v.1.15,2013-01-23 21:09:00,
2013-01-23 15:14:00,46.0,25.8,30.32,WNW,300,5.0,6.0,45,0.00,,,0.00,343,Wunderground v.1.15,2013-01-23 21:14:00,
2013-01-23 15:24:00,45.8,25.1,30.32,NW,323,6.0,9.0,44,0.00,,,0.00,320,Wunderground v.1.15,2013-01-23 21:24:00,
2013-01-23 15:34:00,45.4,25.3,30.32,North,350,6.0,7.0,45,0.00,,,0.00,283,Wunderground v.1.15,2013-01-23 21:34:00,
2013-01-23 15:39:00,45.4,25.3,30.32,NW,324,6.0,6.0,45,0.00,,,0.00,274,Wunderground v.1.15,2013-01-23 21:39:00,
2013-01-23 15:49:00,45.5,24.8,30.32,NNW,329,5.0,5.0,44,0.00,,,0.00,246,Wunderground v.1.15,2013-01-23 21:49:00,
2013-01-23 15:54:00,45.7,25.5,30.32,NW,315,5.0,5.0,45,0.00,,,0.00,232,Wunderground v.1.15,2013-01-23 21:54:00,
2013-01-23 16:04:00,45.5,24.8,30.32,NNW,348,4.0,5.0,44,0.00,,,0.00,167,Wunderground v.1.15,2013-01-23 22:04:00,
2013-01-23 16:14:00,45.5,24.8,30.32,NNW,332,5.0,9.0,44,0.00,,,0.00,176,Wunderground v.1.15,2013-01-23 22:14:00,
2013-01-23 16:24:00,45.0,24.9,30.32,NW,325,5.0,6.0,45,0.00,,,0.00,135,Wunderground v.1.15,2013-01-23 22:24:00,
2013-01-23 16:29:00,44.6,25.1,30.33,North,9,5.0,5.0,46,0.00,,,0.00,90,Wunderground v.1.15,2013-01-23 22:29:00,
2013-01-23 16:39:00,44.1,25.1,30.33,NNW,333,4.0,7.0,47,0.00,,,0.00,56,Wunderground v.1.15,2013-01-23 22:39:00,
2013-01-23 16:49:00,43.3,24.9,30.33,North,355,5.0,5.0,48,0.00,,,0.00,21,Wunderground v.1.15,2013-01-23 22:49:00,
2013-01-23 16:59:00,42.5,24.7,30.33,NNW,346,4.0,4.0,49,0.00,,,0.00,19,Wunderground v.1.15,2013-01-23 22:59:00,
2013-01-23 17:04:00,42.2,24.9,30.33,North,350,4.0,4.0,50,0.00,,,0.00,16,Wunderground v.1.15,2013-01-23 23:04:00,
2013-01-23 17:09:00,41.8,24.5,30.34,North,355,3.0,6.0,50,0.00,,,0.00,12,Wunderground v.1.15,2013-01-23 23:09:00,
2013-01-23 17:19:00,41.1,24.3,30.34,North,5,3.0,3.0,51,0.00,,,0.00,5,Wunderground v.1.15,2013-01-23 23:19:00,
2013-01-23 17:29:00,40.3,24.5,30.34,NNW,334,2.0,2.0,53,0.00,,,0.00,0,Wunderground v.1.15,2013-01-23 23:29:00,
2013-01-23 17:34:00,39.9,24.6,30.34,NNW,327,2.0,3.0,54,0.00,,,0.00,0,Wunderground v.1.15,2013-01-23 23:34:00,
2013-01-23 17:44:00,39.7,24.4,30.35,NNW,335,2.0,2.0,54,0.00,,,0.00,0,Wunderground v.1.15,2013-01-23 23:44:00,
2013-01-23 17:50:00,39.3,24.0,30.35,NNW,344,2.0,2.0,54,0.00,,,0.00,0,Wunderground v.1.15,2013-01-23 23:50:00,
2013-01-23 17:55:00,39.0,24.2,30.35,NNW,346,1.0,2.0,55,0.00,,,0.00,0,Wunderground v.1.15,2013-01-23 23:55:00,
2013-01-23 18:05:00,38.9,24.1,30.36,North,350,2.0,2.0,55,0.00,,,0.00,0,Wunderground v.1.15,2013-01-24 00:05:00,
2013-01-23 18:10:00,38.6,23.8,30.36,North,360,2.0,4.0,55,0.00,,,0.00,0,Wunderground v.1.15,2013-01-24 00:10:00,
2013-01-23 18:20:00,37.9,23.6,30.37,North,355,2.0,2.0,56,0.00,,,0.00,0,Wunderground v.1.15,2013-01-24 00:20:00,
2013-01-23 18:30:00,37.4,23.5,30.37,North,355,1.0,2.0,57,0.00,,,0.00,0,Wunderground v.1.15,2013-01-24 00:30:00,
2013-01-23 18:40:00,37.0,23.6,30.38,NNW,333,1.0,2.0,58,0.00,,,0.00,0,Wunderground v.1.15,2013-01-24 00:40:00,
2013-01-23 18:50:00,36.8,23.4,30.38,NNW,344,2.0,3.0,58,0.00,,,0.00,0,Wunderground v.1.15,2013-01-24 00:50:00,
2013-01-23 18:55:00,36.6,23.6,30.38,NNW,348,2.0,3.0,59,0.00,,,0.00,0,Wunderground v.1.15,2013-01-24 00:55:00,
2013-01-23 19:05:00,36.4,23.4,30.39,NNE,12,4.0,5.0,59,0.00,,,0.00,0,Wunderground v.1.15,2013-01-24 01:05:00,
2013-01-23 19:10:00,36.5,23.5,30.40,North,5,4.0,4.0,59,0.00,,,0.00,0,Wunderground v.1.15,2013-01-24 01:10:00,
2013-01-23 19:20:00,36.4,23.4,30.40,North,360,4.0,5.0,59,0.00,,,0.00,0,Wunderground v.1.15,2013-01-24 01:20:00,
2013-01-23 19:29:00,36.1,23.5,30.41,NNE,28,4.0,5.0,60,0.00,,,0.00,0,Wunderground v.1.15,2013-01-24 01:29:00,
2013-01-23 19:35:00,36.0,23.4,30.41,North,9,4.0,5.0,60,0.00,,,0.00,0,Wunderground v.1.15,2013-01-24 01:35:00,
2013-01-23 19:45:00,35.3,23.2,30.41,NNE,13,2.0,3.0,61,0.00,,,0.00,0,Wunderground v.1.15,2013-01-24 01:45:00,
2013-01-23 19:50:00,35.0,23.3,30.41,NNE,26,3.0,3.0,62,0.00,,,0.00,0,Wunderground v.1.15,2013-01-24 01:50:00,
2013-01-23 20:00:00,34.6,23.3,30.41,North,10,3.0,3.0,63,0.00,,,0.00,0,Wunderground v.1.15,2013-01-24 02:00:00,
2013-01-23 20:10:00,34.6,23.3,30.42,North,9,4.0,6.0,63,0.00,,,0.00,0,Wunderground v.1.15,2013-01-24 02:10:00,
2013-01-23 20:20:00,34.4,23.1,30.42,North,11,5.0,9.0,63,0.00,,,0.00,0,Wunderground v.1.15,2013-01-24 02:20:00,
2013-01-23 20:30:00,34.2,22.5,30.43,North,355,5.0,5.0,62,0.00,,,0.00,0,Wunderground v.1.15,2013-01-24 02:30:00,
2013-01-23 20:40:00,33.9,22.2,30.44,NNE,26,6.0,6.0,62,0.00,,,0.00,0,Wunderground v.1.15,2013-01-24 02:40:00,
2013-01-23 20:49:00,33.5,22.2,30.45,North,10,5.0,6.0,63,0.00,,,0.00,0,Wunderground v.1.15,2013-01-24 02:49:00,
2013-01-23 20:55:00,33.3,22.1,30.45,NNE,24,6.0,6.0,63,0.00,,,0.00,0,Wunderground v.1.15,2013-01-24 02:55:00,
2013-01-23 21:04:00,33.0,22.1,30.46,North,355,6.0,7.0,64,0.00,,,0.00,0,Wunderground v.1.15,2013-01-24 03:04:00,
2013-01-23 21:14:00,32.5,21.7,30.47,North,355,5.0,5.0,64,0.00,,,0.00,0,Wunderground v.1.15,2013-01-24 03:14:00,
2013-01-23 21:20:00,32.2,21.7,30.47,NNE,16,5.0,5.0,65,0.00,,,0.00,0,Wunderground v.1.15,2013-01-24 03:20:00,
2013-01-23 21:29:00,31.5,21.4,30.47,NNE,28,4.0,4.0,66,0.00,,,0.00,0,Wunderground v.1.15,2013-01-24 03:29:00,
2013-01-23 21:39:00,30.9,21.2,30.48,North,360,4.0,6.0,67,0.00,,,0.00,0,Wunderground v.1.15,2013-01-24 03:39:00,
2013-01-23 21:49:00,30.4,20.7,30.48,NNE,32,4.0,4.0,67,0.00,,,0.00,0,Wunderground v.1.15,2013-01-24 03:49:00,
2013-01-23 21:54:00,30.3,20.6,30.49,NNE,32,4.0,5.0,67,0.00,,,0.00,0,Wunderground v.1.15,2013-01-24 03:54:00,
2013-01-23 22:04:00,30.0,19.7,30.49,NNW,339,6.0,6.0,65,0.00,,,0.00,0,Wunderground v.1.15,2013-01-24 04:04:00,
2013-01-23 22:14:00,29.7,19.4,30.50,NE,34,5.0,8.0,65,0.00,,,0.00,0,Wunderground v.1.15,2013-01-24 04:14:00,
2013-01-23 22:24:00,29.2,18.9,30.50,NNE,24,5.0,9.0,65,0.00,,,0.00,0,Wunderground v.1.15,2013-01-24 04:24:00,
2013-01-23 22:34:00,28.9,18.6,30.50,NNE,19,5.0,5.0,65,0.00,,,0.00,0,Wunderground v.1.15,2013-01-24 04:34:00,
2013-01-23 22:39:00,28.6,18.7,30.51,North,355,4.0,4.0,66,0.00,,,0.00,0,Wunderground v.1.15,2013-01-24 04:39:00,
2013-01-23 22:44:00,28.4,18.5,30.52,North,360,4.0,4.0,66,0.00,,,0.00,0,Wunderground v.1.15,2013-01-24 04:44:00,
2013-01-23 22:54:00,28.3,18.0,30.52,NNE,25,5.0,8.0,65,0.00,,,0.00,0,Wunderground v.1.15,2013-01-24 04:54:00,
2013-01-23 23:04:00,28.1,16.4,30.52,NNE,25,7.0,7.0,61,0.00,,,0.00,0,Wunderground v.1.15,2013-01-24 05:04:00,
2013-01-23 23:09:00,27.9,15.8,30.52,NNW,341,6.0,6.0,60,0.00,,,0.00,0,Wunderground v.1.15,2013-01-24 05:09:00,
2013-01-23 23:14:00,27.6,15.1,30.53,North,10,7.0,8.0,59,0.00,,,0.00,0,Wunderground v.1.15,2013-01-24 05:14:00,
2013-01-23 23:24:00,27.1,15.0,30.53,NNE,17,6.0,13.0,60,0.00,,,0.00,0,Wunderground v.1.15,2013-01-24 05:24:00,
2013-01-23 23:34:00,26.7,15.4,30.52,NE,35,5.0,7.0,62,0.00,,,0.00,0,Wunderground v.1.15,2013-01-24 05:34:00,
2013-01-23 23:39:00,26.5,15.2,30.53,NNE,18,5.0,5.0,62,0.00,,,0.00,0,Wunderground v.1.15,2013-01-24 05:39:00,
2013-01-23 23:49:00,26.2,15.3,30.54,NNW,342,6.0,6.0,63,0.00,,,0.00,0,Wunderground v.1.15,2013-01-24 05:49:00,
2013-01-23 23:59:00,25.9,15.4,30.54,NE,48,5.0,6.0,64,0.00,,,0.00,0,Wunderground v.1.15,2013-01-24 05:59:00,